User: anonymous
Location: Coleman
(45.0650°N, 88.0340°W)
Time: 19:39:51
(UTC-05:00)
Language:

Iridium 97 - Orbit

View from above orbital plane
View from above orbital plane
View from above satellite
View from above satellite

Ground track
Ground track

The orbit data is extracted from the following two-line orbital elements,

1 27450U 02031A   14109.40276979  .00000552  00000-0  18990-3 0  1649
2 27450 086.3948 081.6204 0003284 081.6166 278.5402 14.34215907624718
Epoch (UTC): 19 April 2014 09:39:59
Eccentricity: 0.0003284
inclination: 86.3948°
perigee height: 775 km
apogee height: 780 km
right ascension of ascending node: 81.6204°
argument of perigee: 81.6166°
revolutions per day: 14.34215907
mean anomaly at epoch: 278.5402°
orbit number at epoch: 62471

The dashed part of the orbit path shows where the satellite is in the earth's shadow,  

DLR